FW7253 Weather Reports


time (UTC)temp
F
wind
direction
speed
knots
gust
knots
rain 1hr
in
rain 24hr
in
rain mn
in
humidity
%
barometer
mb
20260508035533 29 0 0.0 0.0 0.00 0.00 0.00 84 1022.2
20260508035033 29 0 0.0 0.0 0.00 0.00 0.00 85 1022.2
20260508034548 29 0 0.0 0.0 0.00 0.00 0.00 86 1022.2
20260508034032 29 0 0.0 0.0 0.00 0.00 0.00 87 1022.2
20260508033532 29 0 0.0 0.0 0.00 0.00 0.00 87 1022.1
20260508033039 29 0 0.0 0.0 0.00 0.00 0.00 87 1022.1
20260508032533 29 0 0.0 0.0 0.00 0.00 0.00 87 1022.0
20260508032035 29 0 0.0 0.0 0.00 0.00 0.00 87 1022.1
20260508031544 29 0 0.0 0.0 0.00 0.00 0.00 87 1022.1
20260508031033 29 0 0.0 0.0 0.00 0.00 0.00 87 1022.1
20260508030534 29 0 0.0 0.0 0.00 0.00 0.00 86 1022.2
20260508030045 29 0 0.0 0.0 0.00 0.00 0.00 86 1022.1
20260508025533 28 0 0.0 0.0 0.00 0.00 0.00 85 1022.0
20260508025034 29 0 0.0 0.0 0.00 0.00 0.00 85 1022.1
20260508024541 29 0 0.0 0.0 0.00 0.00 0.00 86 1022.0
20260508024033 28 0 0.0 0.0 0.00 0.00 0.00 85 1021.9
20260508023533 28 0 0.0 0.0 0.00 0.00 0.00 85 1021.9
20260508023038 28 0 0.0 0.0 0.00 0.00 0.00 84 1021.9
20260508022533 28 0 0.0 0.0 0.00 0.00 0.00 85 1021.8
20260508022033 29 0 0.0 0.0 0.00 0.00 0.00 86 1021.8
20260508021551 29 0 0.0 0.0 0.00 0.00 0.00 86 1021.9
20260508021032 29 0 0.0 0.0 0.00 0.00 0.00 86 1021.8
20260508020532 28 0 0.0 0.0 0.00 0.00 0.00 86 1021.8
20260508020049 28 0 0.0 0.0 0.00 0.00 0.00 85 1021.8
20260508015532 29 0 0.0 0.0 0.00 0.00 0.00 85 1021.8
20260508015032 29 0 0.0 0.0 0.00 0.00 0.00 85 1021.8
20260508014544 29 0 0.0 0.0 0.00 0.00 0.00 84 1021.8
20260508014033 29 0 0.0 0.0 0.00 0.00 0.00 84 1021.9
20260508013533 29 0 0.0 0.0 0.00 0.00 0.00 83 1021.7
20260508013053 29 0 0.0 0.0 0.00 0.00 0.00 83 1021.7
20260508012533 29 0 0.0 0.0 0.00 0.00 0.00 83 1021.6
20260508012033 29 0 0.0 0.0 0.00 0.00 0.00 83 1021.6
20260508011543 29 0 0.0 0.0 0.00 0.00 0.00 80 1021.7
20260508011033 29 0 0.0 0.0 0.00 0.00 0.00 78 1021.6
20260508010534 30 0 0.0 0.0 0.00 0.00 0.00 79 1021.3
20260508010050 30 0 0.0 0.0 0.00 0.00 0.00 80 1021.1
20260508005533 30 0 0.0 0.0 0.00 0.00 0.00 79 1021.2
20260508005036 30 0 0.0 0.0 0.00 0.00 0.00 79 1021.2
20260508004545 31 0 0.0 0.0 0.00 0.00 0.00 79 1021.2
20260508004035 31 0 0.0 0.0 0.00 0.00 0.00 79 1021.2
20260508003532 31 0 0.0 0.0 0.00 0.00 0.00 77 1021.1
20260508003041 31 0 0.0 0.0 0.00 0.00 0.00 77 1021.1
20260508002532 31 0 0.0 0.0 0.00 0.00 0.00 77 1020.9
20260508002032 32 0 0.0 0.0 0.00 0.00 0.00 75 1020.8
20260508001607 32 0 0.0 0.0 0.00 0.00 0.00 73 1020.9
20260508001032 32 0 0.0 0.0 0.00 0.00 0.00 74 1020.9
20260508000533 33 0 0.0 0.0 0.00 0.00 0.00 75 1020.9
20260508000040 33 0 0.0 0.0 0.00 0.00 0.00 74 1020.9
20260507235533 33 0 0.0 0.0 0.00 0.00 0.00 74 1020.8
20260507235032 33 0 0.0 0.0 0.00 0.00 0.00 76 1020.9
20260507234547 33 0 0.0 0.0 0.00 0.00 0.00 77 1020.9
20260507234058 32 0 0.0 0.0 0.00 0.00 0.00 78 1021.0
20260507233533 33 0 0.0 0.0 0.00 0.00 0.00 77 1020.9
20260507233046 33 0 0.0 0.0 0.00 0.00 0.00 78 1020.7
20260507232534 33 0 0.0 0.0 0.00 0.00 0.00 79 1020.7
20260507232033 33 0 0.0 0.0 0.00 0.00 0.00 79 1020.7
20260507231545 33 0 0.0 0.0 0.00 0.00 0.00 79 1020.7
20260507231033 33 0 0.0 0.9 0.00 0.00 0.00 79 1020.7
20260507230534 34 0 0.0 0.9 0.00 0.00 0.00 78 1020.6
20260507230044 34 162 0.0 0.9 0.00 0.00 0.00 76 1020.7
20260507225538 34 0 0.0 0.0 0.00 0.00 0.00 68 1020.6
20260507225035 35 0 0.0 0.0 0.00 0.00 0.00 67 1020.4
20260507224554 35 0 0.0 0.0 0.00 0.00 0.00 66 1020.5
20260507224035 35 0 0.0 0.0 0.00 0.00 0.00 67 1020.4
20260507223535 35 0 0.0 0.0 0.00 0.00 0.00 67 1020.4
20260507223039 36 0 0.0 0.0 0.00 0.00 0.00 68 1020.5
20260507222535 36 0 0.0 0.0 0.00 0.00 0.00 65 1020.4
20260507222034 36 0 0.0 0.0 0.00 0.00 0.00 64 1020.4
20260507221547 36 0 0.0 0.0 0.00 0.00 0.00 63 1020.4
20260507221034 37 0 0.0 0.0 0.00 0.00 0.00 62 1020.4
20260507220534 37 0 0.0 0.9 0.00 0.00 0.00 61 1020.3
20260507220048 37 0 0.0 0.9 0.00 0.00 0.00 60 1020.3
20260507215536 38 262 0.0 0.0 0.00 0.00 0.00 61 1020.4
20260507215035 38 0 0.0 0.0 0.00 0.00 0.00 61 1020.3
20260507214548 38 0 0.0 0.0 0.00 0.00 0.00 61 1020.4
20260507214035 39 0 0.0 0.0 0.00 0.00 0.00 59 1020.4
20260507213534 40 0 0.0 0.0 0.00 0.00 0.00 56 1020.2
20260507213043 40 0 0.0 0.0 0.00 0.00 0.00 55 1020.3
20260507212534 40 0 0.0 0.0 0.00 0.00 0.00 58 1020.3
20260507212034 41 0 0.0 0.0 0.00 0.00 0.00 55 1020.3
20260507211543 40 0 0.0 0.0 0.00 0.00 0.00 56 1020.2
20260507211034 40 0 0.0 0.0 0.00 0.00 0.00 56 1020.1
20260507210539 41 0 0.0 0.0 0.00 0.00 0.00 57 1020.1
20260507210041 41 0 0.0 0.0 0.00 0.00 0.00 55 1020.1
20260507205536 42 0 0.0 0.0 0.00 0.00 0.00 54 1020.2
20260507205037 43 0 0.0 0.0 0.00 0.00 0.00 53 1020.1
20260507204552 43 0 0.0 0.0 0.00 0.00 0.00 51 1019.9
20260507204034 44 0 0.0 0.9 0.00 0.00 0.00 50 1019.8
20260507203535 44 0 0.0 0.9 0.00 0.00 0.00 49 1019.8
20260507203048 44 0 0.0 0.9 0.00 0.00 0.00 49 1019.9
20260507202536 44 0 0.0 0.9 0.00 0.00 0.00 49 1019.8
20260507202038 44 0 0.0 0.9 0.00 0.00 0.00 49 1019.8
20260507201552 44 259 0.0 0.9 0.00 0.00 0.00 50 1019.8
20260507201036 45 0 0.0 0.9 0.00 0.00 0.00 49 1019.8
20260507200536 45 0 0.0 1.7 0.00 0.00 0.00 48 1019.8
20260507200043 45 0 0.0 1.7 0.00 0.00 0.00 48 1019.7
20260507195534 45 0 0.0 1.7 0.00 0.00 0.00 46 1019.7
20260507195037 46 245 0.0 1.7 0.00 0.00 0.00 44 1019.6
20260507194541 47 0 0.0 3.5 0.00 0.00 0.00 42 1019.6
20260507194036 47 205 0.9 3.5 0.00 0.00 0.00 42 1019.5
20260507193535 47 0 0.0 0.9 0.00 0.00 0.00 40 1019.5
20260507193039 47 137 0.0 1.7 0.00 0.00 0.00 40 1019.3
20260507192535 48 0 0.0 1.7 0.00 0.00 0.00 39 1019.3
20260507192034 48 153 0.0 1.7 0.00 0.00 0.00 38 1019.2
20260507191552 48 250 0.0 1.7 0.00 0.00 0.00 38 1019.2
20260507191034 49 0 0.0 1.7 0.00 0.00 0.00 36 1019.2
20260507190535 49 276 0.9 1.7 0.00 0.00 0.00 36 1019.1
20260507190052 49 0 0.0 0.9 0.00 0.00 0.00 36 1019.1
20260507185534 50 0 0.0 1.7 0.00 0.00 0.00 35 1019.1
20260507185038 50 231 0.9 1.7 0.00 0.00 0.00 35 1019.0
20260507184548 50 0 0.0 1.7 0.00 0.00 0.00 35 1019.0
20260507184034 51 215 0.0 1.7 0.00 0.00 0.00 33 1018.9
20260507183535 51 215 0.9 4.3 0.00 0.00 0.00 34 1018.9
20260507183044 52 237 1.7 4.3 0.00 0.00 0.00 33 1018.9
20260507182534 52 215 1.7 4.3 0.00 0.00 0.00 33 1018.8
20260507182035 52 210 1.7 4.3 0.00 0.00 0.00 33 1018.9
20260507181540 52 162 2.6 4.3 0.00 0.00 0.00 32 1018.8
20260507181035 53 217 2.6 6.1 0.00 0.00 0.00 32 1018.8
20260507180535 53 229 3.5 7.0 0.00 0.00 0.00 32 1018.8
20260507180039 53 231 4.3 7.0 0.00 0.00 0.00 33 1018.7
20260507175534 53 221 3.5 7.8 0.00 0.00 0.00 32 1018.7
20260507175035 54 217 4.3 7.8 0.00 0.00 0.00 30 1018.7
20260507174545 54 206 4.3 8.7 0.00 0.00 0.00 32 1018.6
20260507174034 54 191 5.2 8.7 0.00 0.00 0.00 31 1018.6
20260507173539 54 169 5.2 8.7 0.00 0.00 0.00 31 1018.7
20260507173046 54 218 4.3 8.7 0.00 0.00 0.00 30 1018.5
20260507172536 54 205 2.6 6.1 0.00 0.00 0.00 33 1018.5
20260507172034 54 157 2.6 6.1 0.00 0.00 0.00 32 1018.5
20260507171543 54 225 4.3 8.7 0.00 0.00 0.00 32 1018.5
20260507171035 54 207 5.2 8.7 0.00 0.00 0.00 31 1018.4
20260507170535 54 209 4.3 9.6 0.00 0.00 0.00 31 1018.4
20260507170049 55 240 3.5 9.6 0.00 0.00 0.00 32 1018.4
20260507165534 54 176 5.2 10.4 0.00 0.00 0.00 31 1018.3
20260507165035 54 209 4.3 10.4 0.00 0.00 0.00 33 1018.5
20260507164547 55 173 2.6 9.6 0.00 0.00 0.00 31 1018.4
20260507164040 55 174 4.3 9.6 0.00 0.00 0.00 31 1018.3
20260507163536 54 213 1.7 7.8 0.00 0.00 0.00 31 1018.3
20260507163045 55 210 3.5 8.7 0.00 0.00 0.00 31 1018.2
20260507162535 54 80 2.6 8.7 0.00 0.00 0.00 32 1018.2
20260507162035 55 138 4.3 9.6 0.00 0.00 0.00 32 1018.2
20260507161546 55 205 3.5 9.6 0.00 0.00 0.00 33 1018.2
20260507161037 55 124 3.5 9.6 0.00 0.00 0.00 34 1018.2
20260507160535 55 354 2.6 8.7 0.00 0.00 0.00 32 1018.3
20260507160046 55 135 4.3 8.7 0.00 0.00 0.00 32 1018.3
20260507155535 55 161 4.3 8.7 0.00 0.00 0.00 33 1018.2
20260507155037 55 137 3.5 9.6 0.00 0.00 0.00 34 1018.2
20260507154548 55 99 3.5 9.6 0.00 0.00 0.00 33 1018.3
20260507154034 55 65 4.3 9.6 0.00 0.00 0.00 34 1018.2
20260507153535 55 133 2.6 7.8 0.00 0.00 0.00 33 1018.2
20260507153051 55 136 2.6 12.2 0.00 0.00 0.00 35 1018.1
20260507152534 56 163 4.3 12.2 0.00 0.00 0.00 35 1018.0
20260507152036 55 136 6.1 12.2 0.00 0.00 0.00 34 1018.1
20260507151547 56 154 3.5 11.3 0.00 0.00 0.00 35 1018.1
20260507151034 55 142 5.2 11.3 0.00 0.00 0.00 33 1018.1
20260507150535 56 153 2.6 10.4 0.00 0.00 0.00 34 1018.1
20260507150047 56 164 2.6 9.6 0.00 0.00 0.00 33 1018.0
20260507145535 56 223 6.1 9.6 0.00 0.00 0.00 35 1018.0
20260507145034 56 262 4.3 9.6 0.00 0.00 0.00 34 1017.9
20260507144545 55 179 4.3 9.6 0.00 0.00 0.00 34 1018.0
20260507144037 56 136 3.5 9.6 0.00 0.00 0.00 34 1018.0
20260507143535 56 228 6.1 9.6 0.00 0.00 0.00 32 1018.0
20260507143047 56 158 3.5 8.7 0.00 0.00 0.00 36 1018.0
20260507142534 55 90 4.3 8.7 0.00 0.00 0.00 34 1018.0
20260507142034 55 111 4.3 8.7 0.00 0.00 0.00 33 1018.0
20260507141543 56 138 4.3 8.7 0.00 0.00 0.00 34 1018.0
20260507141034 56 192 4.3 12.2 0.00 0.00 0.00 33 1018.0
20260507140534 57 219 6.1 12.2 0.00 0.00 0.00 34 1018.0
20260507140045 56 99 3.5 12.2 0.00 0.00 0.00 34 1017.9
20260507135534 56 172 5.2 12.2 0.00 0.00 0.00 34 1017.8
20260507135033 56 136 2.6 9.6 0.00 0.00 0.00 35 1017.9
20260507134553 56 165 4.3 9.6 0.00 0.00 0.00 33 1018.0
20260507134033 57 155 2.6 12.2 0.00 0.00 0.00 34 1017.9
20260507133533 56 136 4.3 12.2 0.00 0.00 0.00 34 1017.8
20260507133048 57 208 4.3 12.2 0.00 0.00 0.00 34 1017.9
20260507132532 57 203 1.7 5.2 0.00 0.00 0.00 30 1017.8
20260507132036 56 217 1.7 7.0 0.00 0.00 0.00 29 1017.8
20260507131556 56 139 2.6 8.7 0.00 0.00 0.00 29 1017.8
20260507131032 57 100 2.6 8.7 0.00 0.00 0.00 27 1017.7
20260507130532 57 217 3.5 7.0 0.00 0.00 0.00 29 1017.7
20260507130101 57 214 2.6 7.0 0.00 0.00 0.00 27 1017.7
20260507125532 57 119 1.7 4.3 0.00 0.00 0.00 31 1017.7
20260507125033 56 165 1.7 6.1 0.00 0.00 0.00 30 1017.8
20260507124551 57 126 2.6 6.1 0.00 0.00 0.00 29 1017.8
20260507124036 57 123 1.7 6.1 0.00 0.00 0.00 28 1017.8
20260507123533 56 321 0.9 6.1 0.00 0.00 0.00 30 1017.8
20260507123042 55 269 3.5 6.1 0.00 0.00 0.00 28 1017.8
20260507122532 55 83 0.9 7.8 0.00 0.00 0.00 28 1017.9
20260507122033 55 236 3.5 7.8 0.00 0.00 0.00 29 1017.9
20260507121540 55 282 1.7 6.1 0.00 0.00 0.00 29 1017.8
20260507121033 55 104 0.9 9.6 0.00 0.00 0.00 30 1017.8
20260507120532 55 178 6.1 9.6 0.00 0.00 0.00 29 1017.9
20260507120042 55 177 5.2 7.8 0.00 0.00 0.00 27 1017.8
20260507115534 56 211 2.6 7.8 0.00 0.00 0.00 31 1017.8
20260507115033 55 130 1.7 8.7 0.00 0.00 0.00 30 1017.8
20260507114600 54 0 3.5 8.7 0.00 0.00 0.00 29 1017.9
20260507114033 55 209 2.6 8.7 0.00 0.00 0.00 32 1017.9
20260507113533 55 140 1.7 8.7 0.00 0.00 0.00 31 1017.9
20260507113045 55 217 4.3 8.7 0.00 0.00 0.00 31 1018.0
20260507112533 54 187 3.5 6.1 0.00 0.00 0.00 31 1018.0
20260507112032 55 156 2.6 6.1 0.00 0.00 0.00 31 1018.0
20260507111542 54 220 1.7 6.1 0.00 0.00 0.00 32 1018.0
20260507111033 54 214 2.6 5.2 0.00 0.00 0.00 29 1018.1
20260507110533 54 125 1.7 7.0 0.00 0.00 0.00 31 1018.0
20260507110043 53 248 4.3 7.0 0.00 0.00 0.00 32 1017.9
20260507105531 53 302 0.9 4.3 0.00 0.00 0.00 34 1018.0
20260507105034 53 181 1.7 7.8 0.00 0.00 0.00 30 1018.0
20260507104539 52 112 5.2 7.8 0.00 0.00 0.00 32 1017.9
20260507104035 53 115 3.5 7.0 0.00 0.00 0.00 34 1017.8
20260507103537 53 134 3.5 6.1 0.00 0.00 0.00 30 1017.9
20260507103040 52 148 2.6 5.2 0.00 0.00 0.00 35 1017.9
20260507102535 53 56 1.7 5.2 0.00 0.00 0.00 32 1017.9
20260507102035 53 151 2.6 5.2 0.00 0.00 0.00 33 1017.9
20260507101546 52 162 2.6 5.2 0.00 0.00 0.00 34 1017.7
20260507101034 52 197 2.6 5.2 0.00 0.00 0.00 32 1017.8
20260507100537 52 177 1.7 3.5 0.00 0.00 0.00 34 1017.8
20260507100047 52 173 1.7 4.3 0.00 0.00 0.00 32 1017.8
20260507095534 51 139 1.7 7.0 0.00 0.00 0.00 34 1017.9
20260507095033 52 17 1.7 8.7 0.00 0.00 0.00 34 1017.8
20260507094541 52 5 4.3 8.7 0.00 0.00 0.00 36 1017.8
20260507094038 51 296 2.6 5.2 0.00 0.00 0.00 35 1017.7
20260507093534 51 127 1.7 4.3 0.00 0.00 0.00 37 1017.7
20260507093048 50 231 0.9 5.2 0.00 0.00 0.00 38 1017.8
20260507092534 50 354 2.6 7.0 0.00 0.00 0.00 35 1017.8
20260507092037 50 340 3.5 7.0 0.00 0.00 0.00 37 1017.9
20260507091541 50 350 1.7 6.1 0.00 0.00 0.00 39 1017.9
20260507091034 50 339 0.0 7.0 0.00 0.00 0.00 36 1017.9
20260507090534 49 248 2.6 7.0 0.00 0.00 0.00 40 1017.8
20260507090039 49 342 0.0 5.2 0.00 0.00 0.00 36 1017.9
20260507085533 49 306 0.9 7.0 0.00 0.00 0.00 36 1017.9
20260507085034 49 289 4.3 7.0 0.00 0.00 0.00 37 1017.8
20260507084547 49 291 1.7 5.2 0.00 0.00 0.00 36 1017.9
20260507084034 49 342 0.9 5.2 0.00 0.00 0.00 39 1017.9
20260507083534 48 348 0.9 6.1 0.00 0.00 0.00 36 1017.8
20260507083047 48 308 3.5 6.1 0.00 0.00 0.00 39 1017.8
20260507082534 48 58 1.7 6.1 0.00 0.00 0.00 36 1017.8
20260507082034 47 131 1.7 6.1 0.00 0.00 0.00 38 1017.9
20260507081548 47 9 1.7 4.3 0.00 0.00 0.00 38 1017.7
20260507081036 48 0 1.7 3.5 0.00 0.00 0.00 39 1017.8
20260507080534 48 338 0.9 6.1 0.00 0.00 0.00 41 1017.7
20260507080047 47 142 0.9 6.1 0.00 0.00 0.00 43 1017.7
20260507075534 47 333 0.9 7.8 0.00 0.00 0.00 42 1017.7
20260507075034 47 337 0.9 7.8 0.00 0.00 0.00 42 1017.7
20260507074602 47 354 4.3 7.8 0.00 0.00 0.00 41 1017.6
20260507074034 46 298 4.3 10.4 0.00 0.00 0.00 45 1017.5
20260507073535 46 326 3.5 10.4 0.00 0.00 0.00 44 1017.5
20260507073039 45 360 6.1 10.4 0.00 0.00 0.00 44 1017.5
20260507072535 45 14 5.2 9.6 0.00 0.00 0.00 45 1017.5
20260507072033 45 309 4.3 8.7 0.00 0.00 0.00 46 1017.4
20260507071546 45 352 4.3 8.7 0.00 0.00 0.00 46 1017.4
20260507071034 44 345 5.2 8.7 0.00 0.00 0.00 46 1017.3
20260507070534 44 331 5.2 9.6 0.00 0.00 0.00 48 1017.3
20260507070046 44 329 5.2 10.4 0.00 0.00 0.00 48 1017.3
20260507065534 44 347 6.1 10.4 0.00 0.00 0.00 47 1017.3
20260507065034 43 340 5.2 10.4 0.00 0.00 0.00 48 1017.4
20260507064541 43 321 7.0 10.4 0.00 0.00 0.00 48 1017.4
20260507064037 43 324 4.3 9.6 0.00 0.00 0.00 49 1017.4
20260507063533 43 307 6.1 8.7 0.00 0.00 0.00 49 1017.3
20260507063043 43 359 4.3 8.7 0.00 0.00 0.00 49 1017.3
20260507062535 42 320 4.3 8.7 0.00 0.00 0.00 50 1017.2
20260507062036 42 332 5.2 10.4 0.00 0.00 0.00 49 1017.2
20260507061539 42 360 7.0 10.4 0.00 0.00 0.00 50 1017.2
20260507061034 41 352 7.0 10.4 0.00 0.00 0.00 50 1017.2
20260507060534 41 320 5.2 8.7 0.00 0.00 0.00 51 1017.1
20260507060040 41 6 5.2 9.6 0.00 0.00 0.00 51 1017.1
20260507055535 41 333 5.2 9.6 0.00 0.00 0.00 51 1017.1
20260507055038 40 359 5.2 11.3 0.00 0.00 0.00 52 1017.1
20260507054549 40 339 6.1 11.3 0.00 0.00 0.00 52 1017.0
20260507054034 40 323 3.5 8.7 0.00 0.00 0.00 53 1017.0
20260507053534 40 342 6.1 8.7 0.00 0.00 0.00 52 1016.8
20260507053050 39 337 4.3 8.7 0.00 0.00 0.00 53 1017.0
20260507052535 39 352 2.6 7.0 0.00 0.00 0.00 54 1017.0
20260507052034 39 334 2.6 7.0 0.00 0.00 0.00 54 1016.8
20260507051545 39 16 3.5 7.8 0.00 0.00 0.00 54 1016.8
20260507051035 39 355 4.3 7.8 0.00 0.00 0.00 54 1016.8
20260507050534 38 351 3.5 7.8 0.00 0.00 0.00 55 1016.7
20260507050042 38 352 3.5 8.7 0.00 0.00 0.00 55 1016.6
20260507045536 38 343 5.2 9.6 0.00 0.00 0.00 55 1016.5
20260507045035 38 326 5.2 9.6 0.00 0.00 0.00 55 1016.6
20260507044547 38 326 5.2 9.6 0.00 0.00 0.00 55 1016.5
20260507044035 37 341 5.2 9.6 0.00 0.00 0.00 56 1016.5
20260507043533 37 314 6.1 9.6 0.00 0.00 0.00 56 1016.5
20260507043046 37 310 5.2 8.7 0.00 0.00 0.00 56 1016.4
20260507042534 37 342 5.2 8.7 0.00 0.00 0.00 56 1016.5
20260507042034 37 341 5.2 11.3 0.00 0.00 0.00 56 1016.5
20260507041549 37 335 5.2 11.3 0.00 0.00 0.00 56 1016.4
20260507041034 37 342 7.0 11.3 0.00 0.00 0.00 56 1016.3
20260507040535 37 24 6.1 9.6 0.00 0.00 0.00 56 1016.3
20260507040046 37 354 6.1 9.6 0.00 0.00 0.00 56 1016.1